Hourly Weather Rusanovcy

Today, 19 April, Monday

Time Temperature Precipitation Wind Pressure Humidity
00:00 +8°C° 0 mm 2 mps 750 mmHg 87%
01:00 +7°C° 0 mm 2 mps 750 mmHg 88%
02:00 +7°C° 0 mm 2 mps 750 mmHg 89%
03:00 +6°C° 0 mm 2 mps 750 mmHg 89%
04:00 +6°C° 0 mm 2 mps 750 mmHg 90%
05:00 +6°C° 0 mm 2 mps 750 mmHg 90%
06:00 +7°C° 0 mm 2 mps 750 mmHg 84%
07:00 +9°C° 0 mm 2 mps 750 mmHg 78%
08:00 +11°C° 0 mm 1 mps 750 mmHg 72%
09:00 +12°C° 0 mm 2 mps 750 mmHg 67%
10:00 +12°C° 0 mm 3 mps 750 mmHg 62%
11:00 +13°C° 0 mm 3 mps 750 mmHg 57%
12:00 +14°C° 0.1 mm 4 mps 750 mmHg 54%
13:00 +14°C° 0.1 mm 4 mps 750 mmHg 50%
14:00 +14°C° 0.1 mm 4 mps 750 mmHg 46%
15:00 +14°C° 0 mm 4 mps 750 mmHg 50%
16:00 +13°C° 0 mm 4 mps 749 mmHg 53%
17:00 +12°C° 0 mm 4 mps 749 mmHg 57%
18:00 +11°C° 0 mm 4 mps 749 mmHg 63%
19:00 +9°C° 0 mm 3 mps 749 mmHg 70%
20:00 +8°C° 0 mm 3 mps 749 mmHg 76%
21:00 +7°C° 0 mm 3 mps 749 mmHg 78%
22:00 +7°C° 0 mm 3 mps 749 mmHg 80%
23:00 +5°C° 0 mm 3 mps 749 mmHg 82%

Tomorrow, 20 April, Tuesday

Time Temperature Precipitation Wind Pressure Humidity
00:00 +6°C° 0 mm 2 mps 749 mmHg 84%
01:00 +6°C° 0 mm 2 mps 749 mmHg 86%
02:00 +6°C° 0 mm 2 mps 749 mmHg 87%
03:00 +5°C° 0 mm 2 mps 748 mmHg 89%
04:00 +5°C° 0 mm 2 mps 748 mmHg 90%
05:00 +5°C° 0 mm 2 mps 748 mmHg 92%
06:00 +6°C° 0 mm 2 mps 748 mmHg 88%
07:00 +7°C° 0 mm 3 mps 748 mmHg 83%
08:00 +8°C° 0 mm 3 mps 748 mmHg 79%
09:00 +8°C° 0.2 mm 3 mps 747 mmHg 77%
10:00 +9°C° 0.2 mm 3 mps 747 mmHg 74%
11:00 +9°C° 0.2 mm 2 mps 747 mmHg 72%
12:00 +10°C° 0.2 mm 2 mps 746 mmHg 69%
13:00 +10°C° 0.2 mm 2 mps 746 mmHg 66%
14:00 +12°C° 0.2 mm 2 mps 746 mmHg 63%
15:00 +12°C° 0.2 mm 2 mps 745 mmHg 63%
16:00 +12°C° 0.2 mm 2 mps 745 mmHg 62%
17:00 +12°C° 0.2 mm 2 mps 745 mmHg 62%
18:00 +11°C° 0.1 mm 1 mps 745 mmHg 68%
19:00 +9°C° 0.1 mm 1 mps 744 mmHg 74%
20:00 +8°C° 0.1 mm 1 mps 744 mmHg 80%
21:00 +7°C° 0 mm 1 mps 744 mmHg 82%
22:00 +7°C° 0 mm 1 mps 744 mmHg 84%
23:00 +6°C° 0 mm 1 mps 744 mmHg 87%

Day after tomorrow, 21 April, Wednesday

Time Temperature Precipitation Wind Pressure Humidity
00:00 +6°C° 0 mm 1 mps 744 mmHg 88%
01:00 +6°C° 0 mm 1 mps 743 mmHg 89%
02:00 +6°C° 0 mm 1 mps 743 mmHg 90%
03:00 +5°C° 0 mm 1 mps 743 mmHg 91%
04:00 +4°C° 0 mm 2 mps 743 mmHg 92%
05:00 +4°C° 0 mm 2 mps 742 mmHg 93%
06:00 +5°C° 0 mm 2 mps 742 mmHg 88%
07:00 +7°C° 0 mm 2 mps 742 mmHg 83%
08:00 +8°C° 0 mm 2 mps 742 mmHg 79%
09:00 +9°C° 0.3 mm 3 mps 742 mmHg 73%
10:00 +11°C° 0.3 mm 3 mps 742 mmHg 67%
11:00 +12°C° 0.3 mm 4 mps 741 mmHg 61%
12:00 +12°C° 0.3 mm 4 mps 741 mmHg 57%
13:00 +13°C° 0.3 mm 4 mps 741 mmHg 54%
14:00 +13°C° 0.3 mm 5 mps 741 mmHg 50%
15:00 +13°C° 0 mm 4 mps 741 mmHg 51%
16:00 +13°C° 0 mm 4 mps 741 mmHg 52%
17:00 +13°C° 0 mm 3 mps 741 mmHg 52%
18:00 +11°C° 0 mm 3 mps 741 mmHg 58%
19:00 +10°C° 0 mm 3 mps 741 mmHg 63%
20:00 +8°C° 0 mm 2 mps 741 mmHg 69%
21:00 +8°C° 0 mm 2 mps 741 mmHg 71%
22:00 +7°C° 0 mm 2 mps 741 mmHg 74%
23:00 +8°C° 0 mm 1 mps 741 mmHg 76%

22 April, Thursday

Time Temperature Precipitation Wind Pressure Humidity
00:00 +7°C° 0 mm 2 mps 741 mmHg 78%
01:00 +7°C° 0 mm 2 mps 741 mmHg 80%
02:00 +6°C° 0 mm 2 mps 741 mmHg 82%
03:00 +6°C° 0.1 mm 2 mps 741 mmHg 85%
04:00 +6°C° 0.1 mm 2 mps 741 mmHg 88%
05:00 +6°C° 0.1 mm 2 mps 741 mmHg 92%
06:00 +7°C° 0 mm 3 mps 741 mmHg 88%
07:00 +6°C° 0 mm 4 mps 742 mmHg 85%
08:00 +7°C° 0 mm 5 mps 742 mmHg 82%
09:00 +7°C° 0 mm 4 mps 743 mmHg 78%
10:00 +7°C° 0 mm 4 mps 743 mmHg 74%
11:00 +7°C° 0 mm 4 mps 744 mmHg 70%
12:00 +8°C° 0 mm 4 mps 744 mmHg 61%
13:00 +9°C° 0 mm 5 mps 744 mmHg 52%
14:00 +10°C° 0 mm 6 mps 744 mmHg 44%
15:00 +10°C° 0 mm 5 mps 744 mmHg 47%
16:00 +9°C° 0 mm 5 mps 744 mmHg 51%
17:00 +10°C° 0 mm 4 mps 744 mmHg 54%
18:00 +7°C° 0 mm 4 mps 744 mmHg 58%
19:00 +7°C° 0 mm 3 mps 744 mmHg 61%
20:00 +6°C° 0 mm 2 mps 744 mmHg 64%
21:00 +6°C° 0 mm 2 mps 744 mmHg 64%
22:00 +5°C° 0 mm 2 mps 744 mmHg 64%
23:00 +5°C° 0 mm 2 mps 743 mmHg 64%

23 April, Friday

Time Temperature Precipitation Wind Pressure Humidity
00:00 +5°C° 0 mm 2 mps 743 mmHg 66%
01:00 +4°C° 0 mm 2 mps 743 mmHg 67%
02:00 +4°C° 0 mm 2 mps 743 mmHg 69%
03:00 +4°C° 0 mm 2 mps 743 mmHg 71%
04:00 +3°C° 0 mm 2 mps 743 mmHg 73%
05:00 +3°C° 0 mm 2 mps 743 mmHg 75%
06:00 +2°C° 0 mm 3 mps 743 mmHg 74%
07:00 +3°C° 0 mm 4 mps 743 mmHg 73%
08:00 +4°C° 0 mm 4 mps 743 mmHg 72%
09:00 +3°C° 0.4 mm 4 mps 743 mmHg 79%
10:00 +3°C° 0.4 mm 4 mps 743 mmHg 86%
11:00 +1°C° 0.4 mm 4 mps 743 mmHg 93%
12:00 +3°C° 0.2 mm 4 mps 743 mmHg 85%
13:00 +3°C° 0.2 mm 5 mps 743 mmHg 78%
14:00 +5°C° 0.2 mm 5 mps 743 mmHg 70%
15:00 +5°C° 0.1 mm 5 mps 743 mmHg 69%
16:00 +6°C° 0.1 mm 5 mps 744 mmHg 67%
17:00 +6°C° 0.1 mm 5 mps 744 mmHg 66%
18:00 +3°C° 0.1 mm 5 mps 744 mmHg 72%
19:00 +2°C° 0.1 mm 5 mps 745 mmHg 79%
20:00 +1°C° 0.1 mm 6 mps 745 mmHg 85%
21:00 0°C° 0 mm 5 mps 745 mmHg 83%
22:00 0°C° 0 mm 5 mps 746 mmHg 81%
23:00 -1°C° 0 mm 5 mps 746 mmHg 79%

24 April, Saturday

Time Temperature Precipitation Wind Pressure Humidity
00:00 -2°C° 0 mm 5 mps 746 mmHg 83%
01:00 -2°C° 0 mm 4 mps 746 mmHg 86%
02:00 -3°C° 0 mm 4 mps 746 mmHg 90%
03:00 -4°C° 0 mm 4 mps 746 mmHg 90%
04:00 -4°C° 0 mm 3 mps 746 mmHg 90%
05:00 -4°C° 0 mm 3 mps 746 mmHg 91%
06:00 -2°C° 0 mm 3 mps 746 mmHg 82%
07:00 0°C° 0 mm 3 mps 746 mmHg 73%
08:00 +1°C° 0 mm 3 mps 746 mmHg 64%
09:00 +3°C° 0 mm 3 mps 746 mmHg 57%
10:00 +4°C° 0 mm 3 mps 746 mmHg 51%
11:00 +5°C° 0 mm 3 mps 745 mmHg 45%
12:00 +5°C° 0.1 mm 3 mps 745 mmHg 44%
13:00 +7°C° 0.1 mm 3 mps 745 mmHg 43%
14:00 +6°C° 0.1 mm 4 mps 745 mmHg 42%
15:00 +6°C° 0.1 mm 4 mps 745 mmHg 46%
16:00 +5°C° 0.1 mm 4 mps 745 mmHg 50%
17:00 +5°C° 0.1 mm 5 mps 745 mmHg 54%
18:00 +4°C° 0.1 mm 4 mps 745 mmHg 63%
19:00 +2°C° 0.1 mm 3 mps 746 mmHg 71%
20:00 +1°C° 0.1 mm 3 mps 746 mmHg 80%
21:00 0°C° 0 mm 3 mps 746 mmHg 83%
22:00 -1°C° 0 mm 3 mps 746 mmHg 86%
23:00 -1°C° 0 mm 3 mps 746 mmHg 88%
Show more